Location: Newark
(41.6500°N, 71.4833°W)
Time: 02:41:34
(UTC+00:00)

A-11 Canister half - Pass Details

Date: 21 January 2020
Orbit: 1517 x 1683 km, 47.2° (Epoch: 19 February)

Event Time Altitude Azimuth Distance (km) Brightness Sun altitude
Rises 08:14:01 0° 275° (W) 4,681 - -43.3°
Reaches altitude 10° 08:17:08 10° 279° (W) 3,688 - -42.7°
Maximum altitude 08:26:18 62° 360° (N) 1,678 - -41.0°
Exits shadow 08:27:34 57° 33° (NNE) 1,740 9.2 -40.8°
Drops below altitude 10° 08:35:31 10° 80° (E) 3,703 11.7 -39.3°
Sets 08:38:39 0° 84° (E) 4,700 12.5 -38.8°
